Date,TemperatureHighF,TemperatureAvgF,TemperatureLowF,DewpointHighF,DewpointAvgF,DewpointLowF,HumidityHigh,HumidityAvg,HumidityLow,PressureMaxIn,PressureMinIn,WindSpeedMaxMPH,WindSpeedAvgMPH,GustSpeedMaxMPH,PrecipitationSumIn
2013-6-1,89.4,75.8,66.4,77.5,71.2,66.1,99,87,59,30.09,29.97,4,0,8,0.11
2013-6-2,88.3,76.8,68.7,76.2,69.9,66.2,99,82,52,30.03,29.90,4,1,6,0.02
2013-6-3,86.0,75.8,66.0,74.1,69.2,64.4,99,82,51,30.01,29.90,7,1,8,0.02
2013-6-4,66.0,66.0,66.0,65.7,65.7,65.7,99,99,99,30.01,30.01,0,0,0,0.02
2013-6-10,86.9,81.1,73.8,73.7,72.2,68.4,96,76,55,30.04,29.95,4,1,7,1.91
2013-6-11,92.8,81.6,72.3,77.6,74.4,70.8,99,81,52,30.10,29.99,5,1,8,0.00
2013-6-12,95.0,83.7,69.4,78.8,74.6,69.1,99,77,50,30.12,30.00,7,1,11,0.00
2013-6-13,92.1,80.0,69.1,79.2,74.0,68.8,99,84,55,30.04,29.81,10,2,14,0.29
2013-6-14,86.4,75.8,64.8,74.2,66.5,60.2,99,77,44,30.05,29.92,7,2,11,0.00
2013-6-15,93.0,75.8,59.9,72.0,66.2,59.6,99,77,41,30.13,30.04,2,0,4,0.00
2013-6-16,92.7,76.1,63.5,76.5,69.9,0.0,99,84,53,30.16,29.99,4,1,8,0.95
2013-6-17,89.6,75.0,70.3,81.6,73.6,0.0,99,96,69,30.07,29.97,4,0,5,0.19
2013-6-18,84.0,75.4,69.4,79.0,72.7,0.0,99,92,70,29.99,29.90,7,1,15,1.21
2013-6-19,87.4,76.2,68.0,74.0,70.0,0.0,99,84,56,30.11,29.97,5,1,24,0.00
2013-6-20,90.1,77.0,64.9,73.6,66.5,0.0,99,76,47,30.21,19.56,4,0,9,0.00
2013-6-21,90.9,76.1,64.2,73.6,68.4,0.0,99,80,45,30.24,30.14,4,0,7,0.02
2013-6-22,90.1,76.7,64.6,73.3,65.7,0.0,99,75,45,30.23,19.62,4,1,9,0.00
2013-6-23,89.8,76.2,63.7,74.5,67.1,0.0,99,79,56,30.22,30.09,3,0,9,0.00
2013-6-24,82.0,74.9,69.1,78.6,69.1,0.0,99,89,85,30.25,30.13,3,0,49,0.14
2013-6-25,89.1,77.5,67.6,81.1,72.1,0.0,99,87,66,30.20,30.05,3,0,9,0.26
2013-6-26,92.5,80.9,70.2,78.8,74.8,0.0,99,84,60,30.13,29.95,4,1,10,0.00
2013-6-27,92.5,80.9,71.2,81.1,73.8,0.0,99,84,65,30.03,19.51,5,1,13,0.12
2013-6-28,91.9,81.1,72.3,81.2,74.5,0.0,99,84,54,29.91,29.73,5,1,22,0.18
2013-6-29,89.2,78.9,69.6,78.3,66.2,0.0,99,74,41,29.78,29.69,6,1,20,0.23
2013-6-30,92.3,78.0,66.9,75.7,64.8,0.0,99,72,33,29.83,29.73,7,0,15,0.00